[[{"header":{"parameterUnit":"m.s-1","parameterCategory":1,"la1":30.2991,"la2":30.254,"lo1":-89.0895,"lo2":-89.0444,"dy":0.0017,"dx":0.0017,"nx":28,"ny":28,"refTime":"2025-05-17T21:00:00:Z","depth":0,"parameterNumber":2,"parameterNumberName":"U-component_of_WINDS"},"data":[0,0,0,0,0,0,0,0,0,0,0,0,0,0,0,0,0,0,0,0,0,0,0,0,0,0,0,0,0,0,0,0,0,0,0,0,0,0,0,0,0,0,0,0,0,0,0,0,0,0,0,0,0,0,0,0,0,0,-0.2363,-0.2362,0,-0.2263,-0.2262,-0.2261,-0.2232,-0.2233,-0.2233,-0.2234,-0.213,-0.2126,-0.2123,0,0,0,0,0,0,0,0,0,0,0,0,0,-0.2527,-0.2524,-0.2363,-0.2362,-0.236,-0.2264,-0.2262,-0.2261,-0.2232,-0.2233,-0.2233,-0.2234,-0.2131,-0.2127,-0.2123,0,0,0,0,0,0,0,0,0,0,0,0,0,-0.2445,-0.2523,-0.2363,-0.2334,-0.2331,-0.2264,-0.2262,-0.226,-0.2232,-0.2233,-0.2233,-0.2234,-0.2132,-0.2127,-0.2122,-0.2076,0,0,-0.2107,-0.2105,0,0,0,0,0,0,0,0,-0.2449,-0.2438,-0.234,-0.2336,-0.2332,-0.2261,-0.2282,-0.2199,-0.2232,-0.2269,-0.2234,-0.2235,-0.2173,-0.2164,-0.2144,-0.2071,-0.2067,-0.2107,-0.2104,-0.2102,-0.2101,0,0,0,0,0,0,0,-0.2455,-0.2443,-0.2323,-0.2338,-0.2334,-0.2326,-0.2315,-0.2266,-0.2218,-0.2266,-0.2264,-0.2253,-0.2171,-0.2149,-0.2141,-0.2065,-0.2107,-0.2103,-0.21,-0.2098,-0.1951,-0.195,0,0,0,0,0,0,-0.2466,-0.2448,-0.2327,-0.232,-0.2394,-0.2323,-0.231,-0.2283,-0.2218,-0.2209,-0.2252,-0.2252,-0.2157,-0.2147,-0.2137,-0.208,-0.2102,-0.2097,-0.2095,-0.1952,-0.1951,-0.195,0,0,0,0,0,0,-0.2469,-0.2455,-0.2331,-0.2383,-0.2367,-0.2319,-0.2288,-0.2281,-0.2259,-0.2207,-0.2198,-0.2238,-0.2157,-0.2144,-0.2092,-0.2076,-0.2095,-0.2091,-0.1953,-0.1952,-0.195,-0.1964,0,0,0,0,0,0,-0.2474,-0.2457,-0.2439,-0.2383,-0.2364,-0.2287,-0.2287,-0.2278,-0.2251,-0.2249,-0.2192,-0.2184,-0.2157,-0.21,-0.2087,-0.2069,-0.2087,-0.1954,-0.1953,-0.1951,-0.1964,-0.1963,-0.1961,0,0,0,0,0,-0.248,-0.2446,-0.2438,-0.2423,-0.2341,-0.2286,-0.2275,-0.2245,-0.2249,-0.2231,-0.2198,-0.2186,-0.208,-0.2094,-0.208,-0.2061,-0.1955,-0.1953,-0.1951,-0.1965,-0.1963,-0.1961,0,0,0,0,0,0,-0.2499,-0.2438,-0.2428,-0.2375,-0.2336,-0.2281,-0.2257,-0.2244,-0.2203,-0.2203,-0.2167,-0.2154,-0.2105,-0.2077,-0.2095,-0.2013,-0.2017,-0.2012,-0.2033,-0.203,-0.2029,-0.2036,-0.2083,0,0,0,0,0,-0.2498,-0.2459,-0.2407,-0.2365,-0.2346,-0.2305,-0.228,-0.2261,-0.2219,-0.2202,-0.2165,-0.2125,-0.2082,-0.2055,-0.2013,-0.1961,-0.1948,-0.194,-0.1939,-0.1938,-0.1934,-0.1905,-0.1901,-0.1943,-0.1943,-0.1943,0,0,-0.2493,-0.2455,-0.2432,-0.2368,-0.2335,-0.2296,-0.2291,-0.2249,-0.222,-0.2195,-0.2144,-0.2116,-0.2068,-0.2016,-0.1991,-0.1992,-0.192,-0.1935,-0.1935,-0.1931,-0.1902,-0.1898,-0.1895,-0.1941,-0.1942,-0.1942,0,0,-0.2464,-0.2431,-0.2393,-0.2361,-0.2313,-0.2286,-0.2277,-0.2225,-0.2205,-0.2154,-0.2135,-0.2099,-0.2027,-0.1994,-0.1967,-0.1929,-0.1916,-0.1916,-0.1908,-0.188,-0.1877,-0.1874,-0.186,-0.1856,-0.1912,-0.1912,-0.1912,0,-0.2464,-0.2405,-0.2375,-0.2334,-0.2307,-0.2284,-0.2245,-0.2216,-0.2156,-0.2137,-0.2139,-0.2049,-0.2015,-0.1955,-0.1946,-0.1926,-0.1914,-0.1922,-0.188,-0.1877,-0.1873,-0.186,-0.1855,-0.1913,-0.1913,-0.1913,-0.1913,0,-0.2407,-0.2366,-0.2341,-0.2285,-0.2255,-0.2215,-0.218,-0.2153,-0.2137,-0.211,-0.2058,-0.2017,-0.1967,-0.1951,-0.1934,-0.1889,-0.1891,-0.1887,-0.189,-0.187,-0.1857,-0.1851,-0.1913,-0.1913,-0.1913,-0.1913,0,0,-0.2386,-0.2316,-0.2307,-0.2282,-0.2228,-0.2195,-0.2155,-0.2108,-0.2085,-0.2045,-0.2011,-0.1951,-0.1947,-0.1918,-0.1897,-0.1873,-0.1845,-0.1871,-0.187,-0.1868,-0.1794,-0.1797,-0.1791,-0.1837,-0.1836,-0.1835,-0.1798,0,-0.2351,-0.2279,-0.2252,-0.2193,-0.2155,-0.2134,-0.2099,-0.2062,-0.2036,-0.2,-0.1972,-0.193,-0.1928,-0.191,-0.1886,-0.1854,-0.183,-0.1856,-0.1804,-0.1802,-0.1816,-0.1784,-0.1787,-0.1754,-0.1792,-0.1791,-0.1791,0,-0.2299,-0.226,-0.2198,-0.215,-0.2133,-0.2102,-0.2056,-0.2022,-0.198,-0.1963,-0.1932,-0.1913,-0.187,-0.1877,-0.1818,-0.1837,-0.1814,-0.1795,-0.1793,-0.1787,-0.1795,-0.1777,-0.1743,-0.1738,-0.1782,-0.1783,-0.1784,0,-0.2291,-0.2222,-0.2176,-0.2155,-0.2098,-0.2077,-0.2052,-0.2011,-0.1984,-0.1945,-0.1927,-0.1883,-0.1858,-0.1824,-0.1794,-0.1802,-0.1738,-0.1742,-0.1722,-0.1723,-0.1709,-0.171,-0.1671,-0.1695,-0.1695,-0.1695,-0.1695,0,-0.2254,-0.2216,-0.2172,-0.2143,-0.2101,-0.2071,-0.203,-0.2003,-0.1967,-0.1933,-0.1912,-0.1881,-0.1844,-0.1807,-0.1784,-0.1738,-0.1727,-0.1713,-0.1707,-0.1714,-0.1716,-0.1698,-0.1699,-0.1694,-0.1694,-0.1695,-0.1695,0,-0.2236,-0.2205,-0.2153,-0.2104,-0.2091,-0.2062,-0.2019,-0.1991,-0.1966,-0.1923,-0.1911,-0.1871,-0.1827,-0.1794,-0.1737,-0.1722,-0.1673,-0.1667,-0.1688,-0.1685,-0.1667,-0.1669,-0.1614,-0.1605,-0.1636,-0.1636,-0.1636,0,-0.2214,-0.2185,-0.2133,-0.211,-0.2085,-0.2047,-0.202,-0.199,-0.1963,-0.1914,-0.1891,-0.1847,-0.1809,-0.1741,-0.1706,-0.1663,-0.1655,-0.1639,-0.1648,-0.1657,-0.1655,-0.1657,-0.1654,-0.1637,-0.1637,-0.1637,-0.1637,0,-0.2179,-0.2166,-0.2128,-0.2086,-0.2055,-0.2019,-0.1984,-0.1965,-0.1928,-0.1899,-0.1855,-0.1826,-0.1769,-0.1725,-0.1679,-0.1652,-0.1638,-0.1635,-0.1628,-0.1635,-0.1648,-0.1641,-0.1684,-0.1636,-0.1636,-0.1636,-0.1636,-0.1636,-0.2159,-0.2132,-0.2092,-0.2051,-0.2022,-0.1989,-0.1961,-0.1932,-0.1895,-0.1847,-0.1831,-0.1786,-0.1745,-0.1682,-0.1655,-0.1619,-0.1619,-0.1609,-0.1606,-0.1604,-0.1605,-0.1654,-0.1611,-0.1611,-0.1611,-0.1611,-0.1611,0,-0.2123,-0.2096,-0.2059,-0.2011,-0.1979,-0.197,-0.193,-0.1904,-0.1865,-0.1829,-0.1793,-0.1743,-0.17,-0.1663,-0.1619,-0.1597,-0.159,-0.1586,-0.1587,-0.1582,-0.1608,-0.1618,-0.1593,-0.1593,-0.1593,-0.1593,-0.1593,-0.1593,-0.21,-0.2055,-0.2037,-0.1978,-0.1951,-0.1907,-0.1886,-0.1856,-0.1827,-0.1772,-0.1737,-0.1714,-0.1677,-0.163,-0.1591,-0.1581,-0.1566,-0.1564,-0.1553,-0.1578,-0.158,-0.1582,-0.1591,-0.1561,-0.1561,-0.153,-0.1529,-0.1529]},{"header":{"parameterUnit":"m.s-1","parameterCategory":1,"la1":30.2991,"la2":30.254,"lo1":-89.0895,"lo2":-89.0444,"dy":0.0017,"dx":0.0017,"nx":28,"ny":28,"refTime":"2025-05-17T21:00:00:Z","depth":0,"parameterNumber":3,"parameterNumberName":"V-component_of_WINDS"},"data":[0,0,0,0,0,0,0,0,0,0,0,0,0,0,0,0,0,0,0,0,0,0,0,0,0,0,0,0,0,0,0,0,0,0,0,0,0,0,0,0,0,0,0,0,0,0,0,0,0,0,0,0,0,0,0,0,0,0,4.6311,4.6311,0,4.6268,4.6268,4.6267,4.617,4.6168,4.6166,4.6164,4.6123,4.6124,4.6125,0,0,0,0,0,0,0,0,0,0,0,0,0,4.6311,4.6312,4.6311,4.631,4.631,4.6268,4.6268,4.6267,4.617,4.6168,4.6165,4.6163,4.6123,4.6124,4.6125,0,0,0,0,0,0,0,0,0,0,0,0,0,4.6294,4.6312,4.6311,4.6256,4.6251,4.6269,4.6268,4.6267,4.6171,4.6168,4.6165,4.6162,4.6123,4.6124,4.6125,4.6193,0,0,4.6129,4.6129,0,0,0,0,0,0,0,0,4.6295,4.6294,4.6265,4.626,4.6254,4.6221,4.6253,4.6243,4.6171,4.6201,4.6164,4.616,4.6159,4.6157,4.6155,4.6192,4.619,4.6129,4.613,4.613,4.6131,0,0,0,0,0,0,0,4.6297,4.6296,4.6294,4.6265,4.6258,4.6235,4.6229,4.6251,4.6198,4.6198,4.6191,4.6187,4.6155,4.6155,4.6154,4.6189,4.6129,4.613,4.6131,4.6131,4.6279,4.6282,0,0,0,0,0,0,4.6305,4.6297,4.6296,4.6293,4.6268,4.6237,4.6231,4.6235,4.6197,4.6188,4.619,4.6183,4.6154,4.6152,4.6152,4.6229,4.613,4.6131,4.6132,4.6276,4.628,4.6284,0,0,0,0,0,0,4.6306,4.6306,4.6297,4.6293,4.629,4.6241,4.6246,4.6236,4.6235,4.6191,4.6181,4.6199,4.6151,4.615,4.6184,4.6227,4.6132,4.6133,4.6272,4.6277,4.6282,4.6385,0,0,0,0,0,0,4.6306,4.6307,4.6331,4.6294,4.6291,4.6329,4.6249,4.6237,4.6237,4.6227,4.6196,4.6188,4.6149,4.6182,4.6185,4.6227,4.6134,4.6268,4.6275,4.628,4.6377,4.6393,4.6406,0,0,0,0,0,4.6306,4.6363,4.6333,4.6334,4.632,4.6332,4.633,4.6282,4.6241,4.6266,4.6237,4.6189,4.6222,4.6187,4.6189,4.6231,4.6265,4.6273,4.628,4.6371,4.639,4.6405,0,0,0,0,0,0,4.6407,4.6357,4.6324,4.6369,4.6356,4.6315,4.6345,4.6303,4.6302,4.6293,4.6235,4.6229,4.627,4.6254,4.6216,4.6296,4.6236,4.6244,4.6305,4.6322,4.6336,4.6339,4.6135,0,0,0,0,0,4.6435,4.6447,4.6403,4.6448,4.6442,4.6395,4.6398,4.6363,4.6347,4.634,4.6314,4.6301,4.6308,4.6314,4.6318,4.6375,4.6367,4.6405,4.6419,4.6431,4.6439,4.6468,4.6484,4.6307,4.6307,4.6307,0,0,4.6492,4.6466,4.6477,4.6467,4.6452,4.6467,4.6391,4.641,4.6421,4.6344,4.6373,4.6354,4.6335,4.6381,4.64,4.6369,4.6486,4.644,4.645,4.6451,4.6477,4.6494,4.6509,4.6312,4.6311,4.6311,0,0,4.6603,4.6585,4.662,4.6607,4.6584,4.6553,4.6562,4.6528,4.6511,4.654,4.6482,4.6495,4.6508,4.6497,4.6494,4.6602,4.6558,4.6605,4.6679,4.6708,4.6722,4.6734,4.6773,4.6787,4.6613,4.6613,4.6613,0,4.6678,4.6697,4.6644,4.6666,4.6664,4.6594,4.663,4.6619,4.6601,4.6601,4.6566,4.6581,4.6564,4.6606,4.6632,4.6632,4.664,4.6608,4.6724,4.6735,4.6746,4.6782,4.6797,4.6619,4.6618,4.6618,4.6617,0,4.6789,4.6803,4.6835,4.6817,4.6818,4.6847,4.68,4.6808,4.6772,4.6745,4.6775,4.6752,4.675,4.6758,4.6724,4.6795,4.6777,4.6734,4.6673,4.6769,4.6803,4.6816,4.6627,4.6625,4.6623,4.6622,0,0,4.6963,4.6915,4.6928,4.6919,4.6889,4.69,4.6927,4.6924,4.6932,4.6921,4.6943,4.6956,4.6916,4.6912,4.6876,4.6902,4.6989,4.6855,4.6854,4.6881,4.7067,4.7099,4.7116,4.696,4.6962,4.6964,4.7068,0,4.7067,4.7109,4.7062,4.7114,4.7127,4.7061,4.7084,4.7069,4.7044,4.7052,4.7025,4.7035,4.6982,4.6979,4.7001,4.6974,4.7026,4.6966,4.698,4.6981,4.6986,4.7133,4.7167,4.7267,4.7081,4.7083,4.7085,0,4.7195,4.7189,4.7242,4.7209,4.7213,4.7235,4.7228,4.7237,4.7219,4.7199,4.7195,4.7152,4.7177,4.7117,4.7151,4.7111,4.7114,4.7102,4.7105,4.7104,4.7039,4.7137,4.7297,4.7312,4.7104,4.7103,4.7101,0,4.7316,4.7322,4.7354,4.7349,4.7312,4.7329,4.7314,4.7293,4.7295,4.729,4.729,4.7289,4.7288,4.7289,4.7247,4.7207,4.7286,4.7223,4.7271,4.7272,4.729,4.729,4.7454,4.7293,4.7292,4.7292,4.7292,0,4.7438,4.7473,4.7408,4.7429,4.7466,4.7413,4.7452,4.743,4.7413,4.7428,4.7371,4.7387,4.733,4.7341,4.7308,4.7341,4.7342,4.7327,4.7318,4.7332,4.7334,4.7333,4.7325,4.7296,4.7295,4.7294,4.7294,0,4.758,4.7538,4.7569,4.7531,4.7523,4.7552,4.752,4.7537,4.7509,4.7529,4.7531,4.7486,4.7495,4.7454,4.7456,4.7434,4.7484,4.7463,4.749,4.7483,4.7534,4.753,4.7703,4.7723,4.7549,4.7551,4.7553,0,4.7661,4.7686,4.765,4.7656,4.7644,4.7654,4.7655,4.7604,4.7608,4.7589,4.7609,4.7614,4.7614,4.7632,4.7601,4.7602,4.7581,4.7642,4.7581,4.7595,4.7582,4.7581,4.7584,4.7655,4.7657,4.7658,4.766,0,4.7808,4.7786,4.7789,4.7785,4.7787,4.7782,4.7773,4.7781,4.7726,4.7733,4.7741,4.7741,4.7743,4.7748,4.7743,4.7729,4.7686,4.7679,4.769,4.7705,4.772,4.7713,4.7524,4.7676,4.7674,4.7673,4.7672,4.7671,4.7921,4.7941,4.7919,4.7924,4.7912,4.7905,4.7919,4.7892,4.7898,4.7894,4.7864,4.7878,4.786,4.7849,4.7839,4.785,4.7822,4.7838,4.7842,4.7847,4.7856,4.7718,4.7849,4.7849,4.7848,4.7848,4.7847,0,4.8066,4.8048,4.8054,4.8042,4.8047,4.8005,4.7992,4.7999,4.8012,4.7998,4.8,4.801,4.8015,4.7984,4.7985,4.7999,4.798,4.8001,4.8,4.7998,4.7881,4.7871,4.8017,4.8017,4.8017,4.8017,4.8017,4.8017,4.8142,4.8172,4.8148,4.8172,4.8154,4.8167,4.8163,4.8157,4.8146,4.8159,4.8162,4.8142,4.8121,4.812,4.8123,4.8114,4.8117,4.8146,4.813,4.8022,4.8006,4.799,4.798,4.8147,4.8147,4.8246,4.8247,4.8247]}]]